Tracking 20092 objects as of 14-Dec-2019
HD Live streaming from Space Station
objects crossing your sky now

LES 9

Track LES 9 now!
LES 9 is classified as:


NORAD ID: 8747
Int'l Code: 1976-023B
Perigee: 35,710.6 km
Apogee: 35,877.1 km
Inclination: 17.7 °
Period: 1,436.1 minutes
Semi major axis: 42164 km
RCS: 3.1777 m2 (large)
Launch date: March 15, 1976
Source: United States (US)
Launch site: AIR FORCE EASTERN TEST RANGE (AFETR)

Original purpose was "Air Force sponsored program in space communications"; nuclear-powered; circuits jam-resistant to operate in hostile environment.
aabbcc
Your satellite tracking list
Your tracking list is empty




NASA's NSSDC Master Catalog

Two Line Element Set (TLE):
1  8747U 76023B   19347.22496083 -.00000075  00000-0  00000+0 0  9994
2  8747  17.6557  68.5240 0019744 112.6321 233.8493  1.00271384105830
Source of the keplerian elements: AFSPC